This demonstration page uses our WeatherBlox Daily Observations layout. Learn more.

Left ArrowRight Arrow

44.8408, -93.29828

Hourly Observations for June 30, 2015

Temp ( °F °C ) Dew Point ( °F °C ) Humidity (%) Winds ( mph kmh ) Pressure ( in mb ) Visibility ( mi km ) Precip ( " mm )
12:53 am 00:53 Partly Cloudy with Mist and Fog 65 18.3 63 17.2 93 93 Calm 29.82 1010 6 10 0.00 0.00
1:53 am 01:53 Mostly Clear with Mist and Fog 64 17.8 62 16.7 93 93 NNE 3 6 29.83 1010 6 10 0.00 0.00
2:53 am 02:53 Clear with Mist and Fog 64 17.8 62 16.7 93 93 Calm 29.84 1010 6 10 0.00 0.00
3:53 am 03:53 Clear with Mist and Fog 64 17.8 62 16.7 93 93 N 7 11 29.84 1010 6 10 0.00 0.00
4:53 am 04:53 Clear 63 17.2 60 15.6 90 90 N 9 15 29.85 1011 7 11 0.00 0.00
5:53 am 05:53 Partly Cloudy with Mist and Fog 63 17.2 60 15.6 90 90 N 6 9 29.87 1012 6 10 0.00 0.00
6:53 am 06:53 Partly Cloudy with Mist and Fog 63 17.2 60 15.6 90 90 N 7 11 29.89 1012 6 10 0.00 0.00
7:53 am 07:53 Partly Cloudy with Mist and Fog 65 18.3 61 16.1 87 87 N 6 9 29.91 1013 6 10 0.00 0.00
8:53 am 08:53 Mostly Cloudy with Haze 67 19.4 60 15.6 79 79 NNE 7 11 29.92 1013 6 10 0.00 0.00
9:53 am 09:53 Mostly Cloudy with Haze 69 20.6 61 16.1 76 76 NNE 8 13 29.92 1013 6 10 0.00 0.00
10:53 am 10:53 Mostly Cloudy 70 21.1 60 15.6 71 71 NNE 8 13 29.93 1013 7 11 0.00 0.00
11:53 am 11:53 Mostly Cloudy 71 21.7 60 15.6 68 68 VRB 7 11 29.93 1014 7 11 0.00 0.00
12:09 pm 12:09 Mostly Cloudy 71 21.7 59 15 66 66 N 8 13 29.94 1014 7 11 0.00 0.00
12:53 pm 12:53 Partly Cloudy 72 22.2 58 14.4 61 61 N 9 15 29.93 1014 8 13 0.00 0.00
1:53 pm 13:53 Mostly Cloudy 74 23.3 57 13.9 56 56 VRB 3 6 29.92 1013 10 16 0.00 0.00
2:53 pm 14:53 Mostly Cloudy 75 23.9 55 12.8 50 50 VRB 3 6 29.91 1013 10 16 0.00 0.00
3:53 pm 15:53 Mostly Cloudy 76 24.4 55 12.8 48 48 NNE 9 15 29.91 1013 10 16 0.00 0.00
4:53 pm 16:53 Mostly Cloudy 76 24.4 55 12.8 48 48 ENE 6 9 29.90 1013 10 16 0.00 0.00
5:53 pm 17:53 Mostly Cloudy 74 23.3 54 12.2 50 50 NE 9 15 29.89 1012 10 16 0.00 0.00
6:53 pm 18:53 Mostly Cloudy 73 22.8 55 12.8 53 53 NNE 9 15 29.90 1013 10 16 0.00 0.00
7:53 pm 19:53 Mostly Cloudy 72 22.2 52 11.1 50 50 NE 7 11 29.91 1013 10 16 0.00 0.00
8:53 pm 20:53 Partly Cloudy 70 21.1 55 12.8 59 59 NE 9 15 29.93 1013 10 16 0.00 0.00
9:53 pm 21:53 Mostly Cloudy 69 20.6 56 13.3 63 63 E 9 15 29.93 1014 10 16 0.00 0.00
10:53 pm 22:53 Mostly Cloudy 67 19.4 55 12.8 66 66 E 8 13 29.95 1014 10 16 0.00 0.00

Powered by AerisWeather